Weather History for Graham, TX

Change the Weather History Date:

Monday, July 1, 2013

  Actual Average (KMWL) Record (KMWL)
Temperature  
Mean Temperature 76 °F -  
Max Temperature 87 °F 91 °F 104 °F (1998)
Min Temperature 65 °F 70 °F 64 °F (2008)
Cooling Degree Days 11    
Growing Degree Days 26 (Base 50)    
Moisture  
Dew Point 50 °F    
Average Humidity 42    
Maximum Humidity 68    
Minimum Humidity 25    
Precipitation  
Precipitation 0.00 in - - ()
Sea Level Pressure  
Sea Level Pressure 30.04 in    
Wind  
Wind Speed 6 mph (NNE)    
Max Wind Speed 17 mph    
Max Gust Speed 26 mph    
Visibility 10 miles    
Events      
Averages and records for this station are not official NWS values.
T = Trace of Precipitation, MM = Missing Value Source: NWS Daily Summary

Daily Weather History Graph

Daily Weather History Graph

Search for Another Location

Airport:

Trip Planner

Search our weather history database for the weather conditions in past years. The results will help you decide how hot, cold, wet, or windy it might be!

Date:

Astronomy

Jul. 01, 2013 Rise Set
Actual Time 6:29 AM CDT 8:47 PM CDT
Civil Twilight 6:00 AM CDT 9:15 PM CDT
Nautical Twilight 5:25 AM CDT 9:50 PM CDT
Astronomical Twilight 4:47 AM CDT 10:29 PM CDT
Moon 1:48 AM CDT (7/1) 3:13 PM CDT (7/1)
Length of Visible Light 15h 15m
Length of Day
14h 18m
Waning Crescent, 35% of the Moon is Illuminated
Jul 1
Waning Crescent
Jul 8
New
Jul 15
First Quarter
Jul 22
Full
Jul 29
Last Quarter

Hourly Weather History & Observations

Time (CDT) Temp. Dew Point Humidity Pressure Visibility Wind Dir Wind Speed Gust Speed Precip Events Conditions
12:15 AM 73.9 °F 53.8 °F 49% 29.98 in 10.0 mi NE 3.5 mph - N/A   Clear
12:35 AM 74.3 °F 53.6 °F 48% 29.99 in 10.0 mi NE 4.6 mph - N/A   Clear
12:55 AM 74.3 °F 53.6 °F 48% 29.99 in 10.0 mi ENE 4.6 mph - N/A   Clear
1:15 AM 74.1 °F 53.8 °F 49% 30.00 in 10.0 mi NE 3.5 mph - N/A   Clear
1:35 AM 72.9 °F 54.1 °F 52% 30.00 in 10.0 mi NE 3.5 mph - N/A   Clear
1:55 AM 71.8 °F 54.5 °F 54% 30.00 in 10.0 mi NE 3.5 mph - N/A   Clear
2:15 AM 70.3 °F 54.5 °F 57% 30.00 in 10.0 mi NNE 3.5 mph - N/A   Clear
2:35 AM 69.4 °F 54.5 °F 59% 30.00 in 10.0 mi NE 3.5 mph - N/A   Clear
2:55 AM 68.9 °F 54.0 °F 59% 30.00 in 10.0 mi Calm Calm - N/A   Scattered Clouds
3:15 AM 69.1 °F 54.5 °F 60% 30.00 in 10.0 mi Calm Calm - N/A   Clear
3:35 AM 68.5 °F 54.0 °F 60% 30.00 in 10.0 mi Calm Calm - N/A   Clear
3:55 AM 68.0 °F 54.0 °F 61% 30.00 in 10.0 mi NE 3.5 mph - N/A   Clear
4:15 AM 67.6 °F 54.0 °F 61% 30.00 in 10.0 mi NE 4.6 mph - N/A   Clear
4:35 AM 68.0 °F 53.6 °F 60% 30.01 in 10.0 mi NE 4.6 mph - N/A   Clear
4:55 AM 67.3 °F 53.8 °F 62% 30.01 in 10.0 mi NE 3.5 mph - N/A   Clear
5:15 AM 67.1 °F 53.4 °F 61% 30.02 in 10.0 mi Calm Calm - N/A   Clear
5:35 AM 67.1 °F 53.1 °F 61% 30.03 in 10.0 mi NNE 3.5 mph - N/A   Clear
5:55 AM 66.6 °F 53.8 °F 63% 30.03 in 10.0 mi NNE 3.5 mph - N/A   Clear
6:15 AM 65.8 °F 54.5 °F 67% 30.04 in 10.0 mi Calm Calm - N/A   Clear
6:35 AM 65.5 °F 54.5 °F 68% 30.04 in 10.0 mi Calm Calm - N/A   Clear
6:55 AM 66.6 °F 54.3 °F 65% 30.05 in 10.0 mi NNE 5.8 mph - N/A   Clear
7:15 AM 67.5 °F 54.0 °F 62% 30.05 in 10.0 mi NNE 4.6 mph - N/A   Clear
7:35 AM 68.0 °F 53.8 °F 60% 30.07 in 10.0 mi NNE 6.9 mph - N/A   Clear
7:55 AM 69.1 °F 53.8 °F 58% 30.07 in 10.0 mi NNE 6.9 mph - N/A   Clear
8:15 AM 70.0 °F 54.1 °F 57% 30.08 in 10.0 mi North 8.1 mph - N/A   Clear
8:35 AM 71.6 °F 54.0 °F 54% 30.08 in 10.0 mi North 9.2 mph - N/A   Clear
8:55 AM 72.9 °F 53.2 °F 50% 30.09 in 10.0 mi NNE 8.1 mph - N/A   Clear
9:15 AM 74.5 °F 52.7 °F 46% 30.09 in 10.0 mi NNE 8.1 mph - N/A   Clear
9:35 AM 76.1 °F 52.7 °F 44% 30.09 in 10.0 mi NNE 9.2 mph - N/A   Clear
9:55 AM 77.4 °F 50.9 °F 39% 30.09 in 10.0 mi North 12.7 mph 17.3 mph N/A   Clear
10:15 AM 77.9 °F 51.8 °F 40% 30.09 in 10.0 mi North 13.8 mph 20.7 mph N/A   Clear
10:35 AM 78.3 °F 49.8 °F 37% 30.09 in 10.0 mi North 11.5 mph 24.2 mph N/A   Clear
10:55 AM 79.0 °F 48.9 °F 35% 30.09 in 10.0 mi NNE 13.8 mph 25.3 mph N/A   Clear
11:15 AM 79.7 °F 49.3 °F 34% 30.09 in 10.0 mi NNE 13.8 mph 19.6 mph N/A   Clear
11:35 AM 80.8 °F 49.1 °F 33% 30.09 in 10.0 mi NNE 10.4 mph 20.7 mph N/A   Clear
11:55 AM 81.1 °F 48.2 °F 32% 30.08 in 10.0 mi NNE 11.5 mph 24.2 mph N/A   Clear
12:15 PM 82.0 °F 48.0 °F 30% 30.08 in 10.0 mi NNE 10.4 mph 18.4 mph N/A   Clear
12:35 PM 82.6 °F 48.4 °F 30% 30.08 in 10.0 mi North 10.4 mph 21.9 mph N/A   Clear
12:55 PM 82.9 °F 48.4 °F 30% 30.08 in 10.0 mi North 9.2 mph 21.9 mph N/A   Scattered Clouds
1:15 PM 83.3 °F 49.1 °F 30% 30.08 in 10.0 mi North 17.3 mph - N/A   Scattered Clouds
1:35 PM 83.5 °F 48.9 °F 30% 30.07 in 10.0 mi North 12.7 mph 20.7 mph N/A   Scattered Clouds
1:55 PM 83.5 °F 48.6 °F 30% 30.06 in 10.0 mi North 10.4 mph 19.6 mph N/A   Scattered Clouds
2:15 PM 84.9 °F 48.9 °F 29% 30.06 in 10.0 mi NNW 11.5 mph 19.6 mph N/A   Scattered Clouds
2:35 PM 83.7 °F 48.7 °F 30% 30.05 in 10.0 mi NNE 11.5 mph 19.6 mph N/A   Scattered Clouds
2:55 PM 85.8 °F 48.6 °F 27% 30.04 in 10.0 mi North 13.8 mph 19.6 mph N/A   Scattered Clouds
3:15 PM 85.6 °F 48.4 °F 27% 30.04 in 10.0 mi NNE 11.5 mph 18.4 mph N/A   Scattered Clouds
3:35 PM 86.0 °F 48.6 °F 27% 30.03 in 10.0 mi NNE 4.6 mph 17.3 mph N/A   Scattered Clouds
3:55 PM 86.7 °F 48.2 °F 26% 30.03 in 10.0 mi North 15.0 mph 26.5 mph N/A   Scattered Clouds
4:15 PM 86.4 °F 47.3 °F 26% 30.03 in 10.0 mi North 12.7 mph 20.7 mph N/A   Scattered Clouds
4:35 PM 86.9 °F 48.2 °F 26% 30.03 in 10.0 mi NNE 11.5 mph 16.1 mph N/A   Scattered Clouds
4:55 PM 85.6 °F 48.9 °F 28% 30.02 in 10.0 mi NNE 11.5 mph 17.3 mph N/A   Scattered Clouds
5:15 PM 86.9 °F 48.0 °F 26% 30.01 in 10.0 mi North 13.8 mph 19.6 mph N/A   Scattered Clouds
5:35 PM 87.4 °F 47.7 °F 25% 30.01 in 10.0 mi NE 11.5 mph 19.6 mph N/A   Mostly Cloudy
5:55 PM 83.7 °F 47.3 °F 28% 30.01 in 10.0 mi NE 10.4 mph 17.3 mph N/A   Scattered Clouds
6:15 PM 86.0 °F 46.8 °F 25% 30.01 in 10.0 mi North 15.0 mph 19.6 mph N/A   Clear
6:35 PM 85.1 °F 46.8 °F 26% 30.01 in 10.0 mi North 6.9 mph 16.1 mph N/A   Clear
6:55 PM 84.9 °F 46.6 °F 26% 30.01 in 10.0 mi North 10.4 mph - N/A   Clear
7:15 PM 84.4 °F 45.7 °F 26% 30.02 in 10.0 mi North 11.5 mph 18.4 mph N/A   Clear
7:35 PM 83.5 °F 45.1 °F 26% 30.02 in 10.0 mi NNE 8.1 mph - N/A   Clear
7:55 PM 82.4 °F 45.7 °F 27% 30.03 in 10.0 mi NNE 8.1 mph - N/A   Clear
8:15 PM 81.5 °F 45.7 °F 28% 30.03 in 10.0 mi North 8.1 mph - N/A   Clear
8:35 PM 79.7 °F 46.4 °F 31% 30.03 in 10.0 mi NNE 5.8 mph - N/A   Clear
8:55 PM 78.3 °F 45.9 °F 32% 30.03 in 10.0 mi NNE 5.8 mph - N/A   Clear
9:15 PM 77.0 °F 45.9 °F 33% 30.03 in 10.0 mi NNE 4.6 mph - N/A   Clear
9:35 PM 75.6 °F 46.0 °F 35% 30.04 in 10.0 mi NNE 3.5 mph - N/A   Clear
9:55 PM 74.3 °F 46.8 °F 37% 30.04 in 10.0 mi NNE 3.5 mph - N/A   Clear
10:15 PM 73.4 °F 46.8 °F 39% 30.05 in 10.0 mi NNE 3.5 mph - N/A   Clear
10:35 PM 72.7 °F 47.1 °F 40% 30.06 in 10.0 mi ENE 3.5 mph - N/A   Clear
10:55 PM 70.9 °F 47.5 °F 43% 30.07 in 10.0 mi East 3.5 mph - N/A   Clear
11:15 PM 69.8 °F 47.8 °F 46% 30.07 in 10.0 mi Calm Calm - N/A   Clear
11:35 PM 69.4 °F 48.2 °F 47% 30.08 in 10.0 mi Calm Calm - N/A   Clear
11:55 PM 68.7 °F 48.0 °F 48% 30.08 in 10.0 mi Calm Calm - N/A   Clear